Flag for Germany Weather past 2 weeks in Neuruppin, Brandenburg, Germany

Now
63 °F

Sunny.


Feels Like: 63 °F
Forecast: 52 / 74 °F
Wind: 2 mph from Southwest

Location: Neuruppin

Current Time: Aug 28, 2015 at 7:36:39 PM

Latest Report: Aug 28, 2015 at 7:00 PM


Visibility: 6 mi

Pressure: 30.11 "Hg

Humidity: 71%

Dew point: 54 °F

Location of NeuruppinLocation

Historic Weather in Neuruppin — Graph

°F

Neuruppin temperature yesterday

Maximum temperature yesterday: 76 °F (at 12:00 PM)
Minimum temperature yesterday: 62 °F (at 10:00 PM)
Average temperature yesterday: 68 °F

Past Weeks' High & Low Weather Summary

 TemperatureHumidityPressure
High89 °F (Aug 14, 6:00 PM)99% (Aug 20, 3:00 AM)30.32 "Hg (Aug 20, 3:00 AM)
Low54 °F (Aug 21, 7:00 AM)32% (Aug 22, 3:00 PM)29.69 "Hg (Aug 15, 3:00 AM)
Average68 °F70%29.96 "Hg
* Reported Aug 13 6:00 PM — Aug 28 6:00 PM, Neuruppin, Weather by CustomWeather, © 2015

Note: Actual official high and low records may vary slightly from our data, if they occured in-between our weather recording intervals... More about our weather records

Advertising

Neuruppin weather history for previous 24 hours

 ConditionsComfort  
Time TempWeatherWind HumidityBarometerVisibility
6:00 PM
Fri, Aug 28
64 °FScattered clouds.2 mph71%30.09 "Hg6 mi
4:00 PM64 °FOvercast.2 mph70%30.09 "Hg6 mi
3:00 PM63 °FOvercast.2 mph72%30.08 "Hg6 mi
2:00 PM63 °FOvercast.3 mph72%30.07 "Hg6 mi
1:00 PM62 °FOvercast.2 mph77%30.06 "Hg6 mi
12:00 PM60 °FOvercast.3 mph81%30.04 "Hg6 mi
10:00 AM59 °FLow clouds.2 mph89%30.00 "Hg6 mi
9:00 AM57 °FLow clouds.2 mph92%29.98 "Hg6 mi
8:00 AM57 °FLight fog.1 mph95%29.95 "Hg6 mi
7:00 AM56 °FLow clouds.1 mph96%29.94 "Hg6 mi
6:00 AM56 °FOvercast.2 mph95%29.92 "Hg5 mi
5:00 AM58 °FLow clouds.2 mph95%29.90 "Hg6 mi
4:00 AM60 °FLow clouds.3 mph95%29.87 "Hg5 mi
3:00 AM61 °FLow clouds.1 mph96%29.85 "Hg6 mi
2:00 AM61 °FOvercast.1 mph96%29.86 "Hg5 mi
1:00 AM62 °FOvercast.No wind95%29.85 "Hg3 mi
10:00 PM
Thu, Aug 27
62 °FOvercast.2 mph95%29.84 "Hg6 mi
9:00 PM62 °FOvercast.2 mph92%29.82 "Hg6 mi
8:00 PM65 °FOvercast.2 mph82%29.83 "Hg6 mi
7:00 PM68 °FOvercast.1 mph74%29.83 "Hg6 mi
Weather by CustomWeather, © 2015

See weather overviewHow to use our weather pages